Orbital Elements at Epoch 2459200.5 (2020-Dec-17.0) TDB
Reference: JPL 15 (heliocentric ecliptic J2000)
Element | Value | Uncertainty (1-sigma) | Units |
e | .2563458165820846 | 5.5053e-08 | |
a | 2.675250343180726 | 1.5316e-08 | au |
q | 1.989461109396561 | 1.501e-07 | au |
i | 2.962928635773144 | 6.72e-06 | deg |
node | 326.4224621009341 | 0.00010349 | deg |
peri | 269.3195259283185 | 0.00010448 | deg |
M | 271.9722562117455 | 1.6971e-05 | deg |
tp | 2459591.306824928710 (2022-Jan-11.80682493) | 7.7262e-05 | TDB |
period | 1598.251311685985 4.38 | 1.3725e-05 3.758e-08 | d yr |
n | .2252461783499107 | 1.9343e-09 | deg/d |
Q | 3.361039576964892 | 1.9242e-08 | au |
|
| | Orbit Determination Parameters
Additional Information
|